Tracking 30703 objects as of 13-Jun-2025
HD Live streaming from Space Station
objects crossing your sky now

ARIANE 5 DEB (SYLDA)

Track ARIANE 5 DEB (SYLDA) now!


NORAD ID: 27833
Int'l Code: 2003-028D
Perigee: 589.1 km
Apogee: 35,646.9 km
Inclination: 6.5 °
Period: 635.6 minutes
Semi major axis: 24488 km
RCS: 16.2807 m2 (large)
Launch date: June 11, 2003
Source: France (FR)
Launch site: FRENCH GUIANA (FRGUI)

Note: This is SATELLITE DEBRIS
Your satellite tracking list
Your tracking list is empty




NASA's NSSDC Master Catalog

Two Line Element Set (TLE):
1 27833U 03028D   25163.47270388 -.00000103  00000-0 -32290-3 0  9997
2 27833   6.5450 259.2463 7157880  34.8585 355.6367  2.26541227181720
Source of the keplerian elements: AFSPC